DECAYED

CZ-6A DEB, 61411 (Decayed)

Orbit data source: Space-Track

CZ-6A DEB, 61411 was space debris in LEO originally from a launch on Tue, 06 Aug 2024 UTC launched from the Taiyaun Space Center, China (TSC). Debris objects in space refer to the collection of defunct objects orbiting the Earth. Examples of debris include non-operational satellites, rocket bodies, and fragments generated from explosions, collisions, or faulty payload assembly.

Not visible in the next 10 days
Identifier
61411, 2024-140YC
Orbit
Decayed
Country
Flag of CNCN / PRC
Related business
Manufacturer
SAST
Mission
Decayed spacecraft
Bus & Motor
Unknown
Mass
Unknown
Launch date (UTC)
2024-08-06 (1 year ago)
Launch vehicle
Unknown
Launch site
Taiyaun Space Center, China (TSC)
Object type
Payload
Rocket body
Debris
Shape & HBR
Unknown shape, 0.1 m
Radar Cross Section
Small (<0.1 m²)

Expand to show TLE details & history
Last TLE update: 10 months ago

TLE from 10 months ago
0 CZ-6A DEB
1 61411U 24140YC  25004.36023492  .06963230  00000-0  36971-1 0  9990
2 61411  89.1312 335.5331 0028851 189.7361 170.3360 15.75240208 17395
Epoch: 2025-01-04T08:38Z
TLE epoch observation values (Epoch: 2025-01-04T08:38:44.297Z)
Latitude
0.00004°
Longitude
101.63696°
Altitude
366.345 km
Speed
7.679 km/s
True Right ascension
22h 22m 07s
True Declination
0° 00' 00"
Sunlit
Object was in daylight at epoch
Visualization orbit readout
Latitude
Unknown
Longitude
Unknown
Altitude
Unknown
Speed
Unknown
Apparent Right ascension
Unknown
Apparent Declination
Unknown
Sunlit
N/A
Visualization observer readout
Local Sidereal Time
11:23:09
Azimuth
Unknown
Elevation
Unknown
Doppler factor
Unknown
Orbital elements
Apogee altitude
360.064 km
Perigee altitude
321.295 km
Semi-major axis
6,718.816 km
Eccentricity
0.00289
Inclination
89.1312°
RAAN
335.5331°
Arg. of periapsis
189.7361°
True anomaly
170.3913°
Mean anomaly
170.336°
Eccentric anomaly
170.36367°
Mean motion
3.94098 °/min
Orbital period
91.35 mins
BSTAR
0.036971
Loading maneuver chart data...
Computing Atmospheric mass density...
Loading historical data...
Loading historical data...
Loading historical data...
Loading historical data...
Loading historical data...
Loading historical data...
Loading historical data...

Documentation

Showing up to 5 results
|